RH
87 89 95 100 100 99 99 98 90 96 93 99 97 100 100 89 98 96 95 67 97 96 99 97 98 75 65 65 44 22 17 17 16 16 17 16 15 15 16 17 19 20 22
90 89 95 99 100 99 99 100 100 91 98 100 98 99 100 97 93 96 97 96 86 95 98 99 99 74 55 60 50 30 21 19 18 18 17 17 16 18 20 18 20 22 23
89 88 92 98 98 100 99 100 100 98 99 98 100 100 90 100 95 96 91 99 99 100 99 89 97 87 67 58 56 44 27 22 20 18 20 17 18 20 21 21 21 23 25
89 91 93 96 96 99 99 100 100 98 100 90 95 99 98 100 98 84 94 100 100 97 99 86 98 89 87 83 62 50 35 27 21 22 22 18 19 20 17 23 23 22 22
92 90 95 96 96 97 100 100 100 98 100 92 90 94 100 97 99 100 99 99 92 100 99 98 100 95 95 82 56 49 37 31 22 25 25 20 19 19 18 20 21 22 24
91 92 95 96 95 96 99 99 100 99 100 100 83 92 98 98 98 100 100 99 100 99 100 98 100 100 100 98 73 58 38 28 24 23 26 22 21 21 21 22 23 23 25
93 92 96 96 96 96 95 99 100 99 100 100 73 78 94 100 99 98 100 98 89 99 100 100 99 98 100 100 85 71 54 37 26 21 25 27 38 37 34 30 24 24 24
93 93 95 95 96 96 94 97 100 100 100 100 95 85 88 100 99 99 99 100 91 98 99 99 94 98 100 96 64 60 59 44 34 25 27 33 31 28 24 23 24 25 25
94 94 94 96 94 95 94 95 100 100 99 100 100 89 99 99 95 100 100 100 92 99 100 100 98 98 100 99 93 63 62 50 42 32 30 27 25 25 22 22 24 24 26
93 94 96 96 95 95 95 94 100 100 100 100 100 85 96 96 95 99 100 100 98 99 100 100 98 100 100 100 100 99 79 63 64 70 49 30 25 25 22 23 25 26 28
94 95 95 95 96 96 95 95 97 100 100 100 100 100 100 95 95 94 100 100 99 100 98 100 98 98 99 100 100 100 97 95 85 51 42 34 28 26 23 25 25 27 38
94 94 95 95 96 95 95 94 96 99 100 100 100 100 99 98 99 100 100 100 98 98 99 98 96 95 98 99 100 100 100 99 75 54 39 30 28 27 29 28 27 34 69
92 94 94 95 95 95 96 94 95 97 100 100 100 100 100 98 99 99 100 100 100 100 100 99 99 99 98 99 100 100 100 100 87 53 53 44 30 30 44 52 32 47 82
91 93 94 95 96 95 95 96 94 96 98 100 100 100 100 100 99 100 98 100 100 100 100 100 99 100 100 97 100 100 100 100 98 84 78 43 34 44 32 34 39 75 86
85 94 93 95 95 94 93 94 94 95 97 100 100 100 100 100 98 97 99 99 99 99 99 100 100 99 98 99 100 100 98 100 99 99 84 40 29 35 55 39 60 86 86
88 93 94 94 95 96 94 89 96 96 96 100 100 99 100 100 100 98 100 100 100 98 100 100 99 98 99 100 99 98 98 100 99 61 38 34 37 63 68 48 80 89 88
94 93 94 95 95 96 94 94 92 93 96 98 99 96 97 100 99 99 100 100 100 98 99 100 100 99 99 99 98 98 98 100 98 66 50 55 68 70 51 68 92 92 89
92 94 97 95 96 96 95 94 95 95 95 96 99 97 97 99 100 100 100 100 100 100 100 99 99 100 100 100 99 98 100 96 74 65 59 63 56 45 73 98 99 92 92
94 94 95 96 96 97 96 94 95 95 96 96 96 96 97 98 99 100 100 100 100 98 100 100 100 100 100 99 99 100 100 92 78 76 63 67 51 85 100 100 97 97 91
95 97 100 93 95 95 96 94 94 94 95 96 96 96 97 97 98 100 100 100 100 100 99 99 99 100 99 100 99 100 100 98 87 71 77 57 81 100 100 100 99 94 90
99 95 81 79 96 96 96 95 94 94 96 96 95 96 97 97 97 98 99 100 100 100 98 99 100 98 99 99 100 99 100 91 68 62 68 75 85 100 100 100 99 92 85
100 82 71 86 95 96 96 95 95 94 96 96 95 97 97 96 97 98 99 100 100 100 100 100 99 99 99 97 99 99 98 78 76 78 72 84 92 100 100 99 94 88 81
86 72 78 91 94 96 96 96 95 95 96 96 96 97 97 95 97 98 99 100 100 100 99 100 99 99 99 98 100 100 98 86 85 87 88 99 100 100 99 96 89 84 76
79 74 90 95 94 95 96 95 94 95 96 97 99 98 94 94 98 99 98 100 100 98 99 100 100 100 100 100 100 100 100 100 95 95 92 98 98 100 98 91 86 79 70
74 89 95 97 95 95 96 96 94 95 97 99 96 98 93 96 97 98 98 98 99 99 99 100 99 100 100 99 100 100 99 100 100 100 100 100 98 97 91 88 81 72 64
92 95 97 100 97 96 97 95 94 96 96 98 95 95 94 95 96 97 97 97 98 98 99 99 100 100 100 100 100 100 100 100 100 100 100 100 100 93 90 83 74 66 60
Wind_Speed
25 25 25 26 25 27 29 35 39 33 32 44 48 41 42 45 50 48 46 43 54 53 48 45 46 50 48 44 35 28 23 19 16 15 11 18 24 21 29 26 23 21 18
25 25 25 25 23 26 28 32 37 37 38 43 50 50 44 46 49 51 51 52 54 56 50 48 48 45 41 37 41 35 29 23 20 18 15 15 19 20 20 24 24 20 18
27 26 25 24 23 22 27 29 39 34 37 39 55 49 46 49 52 53 52 53 55 56 49 43 44 45 44 43 39 41 34 27 22 18 17 15 16 19 14 20 22 18 16
27 25 27 24 24 21 22 24 32 39 38 43 44 40 36 46 51 53 51 52 51 51 52 42 48 47 43 42 42 41 40 31 25 21 19 17 15 14 14 15 16 14 15
27 26 27 24 23 21 19 20 24 38 36 47 38 42 43 42 51 55 54 53 52 56 52 47 50 47 45 38 39 41 41 37 30 26 24 19 20 18 15 14 13 15 17
28 27 27 24 22 21 18 15 22 34 34 43 44 42 42 43 48 50 54 55 51 55 51 48 51 44 44 38 38 37 40 41 36 31 27 24 19 16 13 11 14 17 20
30 29 27 23 22 20 19 14 19 28 32 46 47 44 46 49 51 49 54 53 51 53 50 47 43 42 41 35 38 39 38 41 37 33 30 27 26 23 21 23 21 20 20
28 29 28 27 24 21 21 17 16 22 27 41 46 45 47 52 49 54 52 53 50 51 51 48 43 44 40 34 36 38 38 40 40 36 32 26 26 22 21 21 20 21 22
28 28 28 26 24 22 23 21 14 14 26 33 45 44 47 51 52 55 50 50 49 52 50 44 43 43 39 37 38 40 41 41 40 36 33 30 27 28 25 25 22 22 21
29 29 27 24 23 22 23 23 16 13 21 29 41 44 48 48 46 55 51 49 51 50 50 46 41 37 40 39 37 39 45 47 45 44 42 36 32 26 24 23 21 21 21
28 29 28 24 22 20 21 20 17 13 17 24 42 44 47 46 52 54 51 47 51 50 50 47 45 41 41 40 40 36 38 40 45 45 41 39 33 31 29 25 23 25 22
27 28 28 25 23 21 21 20 16 13 14 21 32 36 39 43 50 49 47 47 47 49 49 46 42 38 37 34 37 35 36 39 45 44 40 39 38 37 30 24 29 24 21
28 28 28 26 23 20 21 19 19 12 12 13 25 30 36 42 45 46 46 45 47 47 46 43 39 37 37 36 34 33 36 42 48 46 46 44 41 33 29 32 29 24 24
27 28 28 27 26 23 19 17 18 16 12 8 15 24 26 40 44 42 41 41 42 43 43 40 36 35 35 34 33 32 36 43 48 51 47 41 38 36 33 30 26 25 20
24 27 28 28 29 27 22 21 22 17 12 15 7 19 29 36 43 42 42 42 42 42 42 37 35 35 37 38 37 39 39 41 44 43 42 43 40 33 33 31 26 23 21
23 24 26 27 29 25 24 23 14 15 12 9 8 12 23 30 34 36 39 40 42 40 44 41 39 39 41 42 42 41 39 43 45 44 42 41 36 33 35 32 27 24 21
23 22 23 25 27 26 24 24 30 21 11 7 7 10 16 27 27 31 31 32 33 38 44 45 44 44 44 43 43 44 47 49 47 49 43 38 39 39 37 32 31 27 24
21 20 21 24 27 24 22 21 21 23 21 8 7 6 10 25 28 29 27 28 37 37 43 47 48 47 46 44 44 45 50 49 49 47 43 41 40 38 37 36 32 29 23
20 21 23 27 24 22 20 18 21 21 18 13 7 5 7 14 28 32 29 33 40 43 47 46 47 47 45 44 43 47 51 51 52 48 43 40 39 38 37 35 32 27 21
19 20 21 26 24 22 19 18 21 21 19 14 9 7 5 8 19 30 38 36 40 43 47 45 46 45 43 43 43 49 51 51 51 46 44 42 38 37 35 35 33 27 23
20 23 26 23 21 19 18 17 19 21 19 13 10 8 7 7 13 26 35 42 44 44 44 48 46 42 42 43 47 51 53 53 51 49 48 43 37 39 35 34 30 25 22
20 26 26 22 20 18 16 17 18 19 18 14 12 8 6 6 10 18 31 38 43 45 46 46 44 44 44 46 50 54 55 56 53 52 50 46 44 39 37 34 30 26 23
24 28 24 19 18 17 16 15 15 17 17 14 13 10 5 3 7 11 21 32 36 40 41 43 42 44 42 42 47 51 55 56 54 51 48 46 43 39 38 35 31 28 25
29 26 22 19 18 17 16 16 16 17 16 13 12 9 6 4 6 8 11 20 29 31 38 43 42 43 41 41 43 44 46 51 51 50 49 45 39 41 39 35 31 28 25
27 22 19 17 17 16 15 14 14 16 15 14 11 9 5 6 5 6 10 13 17 26 34 37 36 36 34 37 41 43 45 47 48 50 50 45 45 43 39 35 33 30 27
20 17 16 14 15 15 14 14 14 15 14 13 11 11 8 8 5 4 8 13 18 22 26 31 30 30 32 32 34 37 40 40 40 43 48 51 48 44 40 37 34 31 27
Wind_Direction
307 300 294 290 279 255 241 227 213 227 233 232 223 210 218 213 212 210 208 203 211 213 216 225 225 226 223 223 220 220 220 229 236 244 240 231 227 229 227 227 236 239 245
315 306 302 296 282 254 244 229 212 218 234 228 222 226 225 221 214 213 214 210 211 215 220 227 229 223 228 226 223 222 225 227 232 240 247 236 230 224 225 227 234 236 243
322 313 308 302 288 268 242 230 216 205 223 225 221 223 222 224 219 218 216 220 218 220 224 229 230 226 225 224 223 223 224 229 232 232 239 226 220 218 226 227 226 235 243
330 320 314 309 297 281 249 236 218 207 213 222 224 218 228 231 225 221 219 220 223 227 230 230 229 228 229 227 224 223 223 226 228 227 227 219 213 216 229 225 225 235 244
333 326 321 313 302 288 267 246 224 210 208 224 228 234 235 235 230 227 225 225 225 228 227 232 231 230 231 229 225 223 221 222 221 223 224 217 215 212 217 225 233 234 247
332 330 327 319 307 297 285 261 233 213 210 214 219 231 229 236 240 235 229 230 230 228 229 235 233 235 235 229 228 228 228 222 219 221 219 216 216 217 213 243 247 248 249
333 330 330 326 314 306 297 284 247 212 213 210 219 224 235 236 235 240 235 229 236 235 235 229 232 236 234 228 225 226 224 228 227 225 220 231 245 248 251 250 248 248 256
335 333 331 331 321 318 310 303 268 220 217 204 212 218 227 234 237 236 235 226 235 235 235 231 237 231 229 226 222 221 218 222 222 222 230 245 248 245 242 239 239 243 252
337 335 335 332 331 322 311 308 293 238 224 204 209 212 224 229 236 237 234 223 231 234 235 231 231 233 231 230 224 222 219 217 219 220 228 231 233 236 241 242 241 247 258
336 335 335 333 334 323 315 312 302 262 229 214 208 209 222 227 236 233 228 223 229 228 229 227 231 233 225 228 232 229 221 222 220 223 219 226 231 235 239 242 247 255 258
333 335 336 335 330 323 318 313 310 282 246 218 207 202 218 228 237 235 224 223 225 224 227 226 229 233 234 236 237 234 239 232 222 216 217 225 227 235 238 241 254 256 253
333 335 336 335 332 329 326 320 321 295 264 231 202 200 212 221 229 228 223 223 224 224 225 227 229 234 234 236 233 236 231 223 215 212 212 218 224 229 232 239 253 250 254
331 335 335 335 334 335 330 327 325 317 287 230 198 195 207 219 225 227 225 224 228 228 228 230 230 232 234 238 235 233 223 216 213 208 212 218 222 225 236 240 245 246 250
329 332 336 337 336 336 337 330 324 323 315 284 203 198 209 221 223 223 223 221 224 226 226 225 226 228 229 233 230 221 222 218 217 216 214 218 218 222 226 234 236 242 241
330 332 334 336 341 339 334 337 327 320 313 297 220 192 202 217 219 220 219 214 214 220 221 217 218 222 224 223 219 215 217 216 217 215 213 216 217 215 226 232 233 233 237
330 331 333 336 335 336 338 327 316 321 297 289 259 219 202 209 212 221 219 217 213 216 215 215 215 220 220 217 215 213 214 213 209 203 208 211 211 217 226 228 228 232 235
329 329 332 331 334 337 337 337 338 331 319 283 263 244 235 210 206 215 218 218 217 216 216 214 215 217 218 216 215 214 211 209 206 204 208 208 215 222 221 222 226 224 226
327 327 327 333 332 333 335 334 326 322 326 302 244 253 241 220 200 201 206 207 206 214 219 217 217 218 216 215 215 211 210 205 201 202 205 207 214 215 217 220 219 221 219
327 329 335 327 327 329 326 327 326 324 329 321 318 253 252 231 212 204 193 206 207 208 214 217 220 219 217 216 215 210 209 204 201 203 203 206 212 216 218 218 214 212 211
327 327 327 327 326 326 328 327 325 329 327 339 328 301 259 236 214 210 202 205 213 211 214 216 217 219 218 215 212 208 207 206 203 203 201 206 212 216 216 213 208 206 204
324 327 329 323 322 323 324 325 329 322 324 327 329 299 276 266 233 211 209 204 213 213 214 217 217 216 216 214 212 209 206 205 203 200 203 208 213 214 210 206 201 197 201
323 324 325 324 321 320 324 324 322 321 320 326 322 313 284 277 256 227 213 210 212 214 216 217 217 217 215 212 212 207 206 206 206 205 208 211 211 208 202 195 193 194 195
324 327 324 322 319 318 320 325 325 320 320 320 317 318 323 301 262 232 213 214 215 214 217 220 219 222 219 215 215 212 212 211 210 209 205 206 204 201 195 192 190 191 190
326 325 322 321 324 323 322 325 325 319 319 321 312 329 344 334 266 218 206 218 216 216 220 221 220 221 219 216 216 216 215 215 212 208 206 205 204 195 191 187 187 187 186
322 319 320 319 324 321 318 319 326 320 323 324 329 325 354 311 275 210 200 209 211 216 217 217 216 216 215 216 215 213 213 215 215 211 208 207 200 192 186 185 184 183 184
319 319 321 315 320 320 321 322 324 318 322 326 336 349 348 324 298 227 202 203 207 207 209 211 209 209 208 210 213 210 207 207 203 195 191 192 188 182 182 182 181 179 176